User: anonymous   Login
Location: Erlenbrunn
(49.1717°N, 7.6142°E)
Time: 03:48:34
(UTC+00:00)
Language:

COSMOS 2428 - Orbit

View from above orbital plane
View from above orbital plane
View from above satellite
View from above satellite

Ground track
Ground track

The orbit data is extracted from the following two-line orbital elements,

1 31792U 07029A   21058.83284165  .00000009  00000-0  30852-4 0  9994
2 31792  70.8906  96.3738 0004771  26.7097 333.4269 14.12237434704923
Epoch (UTC): 27 February 2021 19:59:17
Eccentricity: 0.0004771
inclination: 70.8906°
perigee height: 848 km
apogee height: 855 km
right ascension of ascending node: 96.3738°
argument of perigee: 26.7097°
revolutions per day: 14.12237434
mean anomaly at epoch: 333.4269°
orbit number at epoch: 70492

The dashed part of the orbit path shows where the satellite is in the earth's shadow,  

DLR